Time,TemperatureF,DewpointF,PressureIn,WindDirection,WindDirectionDegrees,WindSpeedMPH,WindSpeedGustMPH,Humidity,HourlyPrecipIn,Conditions,Clouds,dailyrainin,SoftwareType,DateUTC
2017-11-20 00:06:00,46.5,44.0,30.08,North,0,0.0,-999.0,91,0.00,,,0.00,,2017-11-20 08:06:00,
2017-11-20 00:11:00,46.5,44.0,30.08,NNE,23,0.0,-999.0,91,0.00,,,0.00,,2017-11-20 08:11:00,
2017-11-20 00:16:00,46.5,44.0,30.08,North,0,0.0,-999.0,91,0.00,,,0.00,,2017-11-20 08:16:00,
2017-11-20 00:21:00,46.5,44.0,30.09,NNE,23,0.0,-999.0,91,0.00,,,0.00,,2017-11-20 08:21:00,
2017-11-20 00:27:00,46.5,44.0,30.10,North,0,0.0,-999.0,93,0.00,,,0.00,,2017-11-20 08:27:00,
2017-11-20 00:32:00,46.5,44.0,30.09,NNE,23,0.0,-999.0,93,0.00,,,0.00,,2017-11-20 08:32:00,
2017-11-20 00:37:00,46.5,44.0,30.09,NNW,338,0.0,-999.0,93,0.00,,,0.00,,2017-11-20 08:37:00,
2017-11-20 00:42:00,46.5,44.0,30.09,NNE,23,0.0,-999.0,93,0.00,,,0.00,,2017-11-20 08:42:00,
2017-11-20 00:57:00,46.5,44.0,30.08,NNW,338,0.0,-999.0,93,0.00,,,0.00,,2017-11-20 08:57:00,
2017-11-20 01:02:00,46.5,44.0,30.09,NNW,338,0.0,-999.0,91,0.00,,,0.00,,2017-11-20 09:02:00,
2017-11-20 01:17:00,46.9,44.0,30.08,NW,315,0.0,-999.0,91,0.00,,,0.00,,2017-11-20 09:17:00,
2017-11-20 01:22:00,46.9,44.0,30.09,NNE,23,0.0,-999.0,91,0.00,,,0.00,,2017-11-20 09:22:00,
2017-11-20 01:27:00,46.9,43.0,30.09,North,0,0.0,-999.0,88,0.00,,,0.00,,2017-11-20 09:27:00,
2017-11-20 01:32:00,47.1,44.0,30.10,NNE,23,0.0,-999.0,91,0.00,,,0.00,,2017-11-20 09:32:00,
2017-11-20 01:47:00,47.3,44.0,30.10,North,0,0.0,-999.0,91,0.00,,,0.00,,2017-11-20 09:47:00,
2017-11-20 01:52:00,47.3,45.0,30.10,NW,315,0.0,-999.0,91,0.00,,,0.00,,2017-11-20 09:52:00,
2017-11-20 02:13:00,47.3,45.0,30.10,South,180,0.0,-999.0,91,0.00,,,0.00,,2017-11-20 10:13:00,
2017-11-20 02:19:00,47.3,45.0,30.11,North,0,0.0,-999.0,91,0.00,,,0.00,,2017-11-20 10:19:00,
2017-11-20 02:24:00,47.3,45.0,30.11,NNW,338,0.0,-999.0,91,0.00,,,0.00,,2017-11-20 10:24:00,
2017-11-20 02:30:00,47.3,44.0,30.11,NNW,338,0.0,-999.0,91,0.00,,,0.00,,2017-11-20 10:30:00,
2017-11-20 02:35:00,47.5,45.0,30.11,West,270,0.0,-999.0,93,0.00,,,0.00,,2017-11-20 10:35:00,
2017-11-20 02:47:00,47.5,45.0,30.11,WSW,248,0.0,-999.0,91,0.00,,,0.00,,2017-11-20 10:47:00,
2017-11-20 02:58:00,47.5,45.0,30.11,North,0,0.0,-999.0,91,0.00,,,0.00,,2017-11-20 10:58:00,
2017-11-20 03:09:00,47.5,44.0,30.11,NNE,23,0.0,-999.0,90,0.00,,,0.00,,2017-11-20 11:09:00,
2017-11-20 03:15:00,47.6,44.0,30.11,NE,45,0.0,-999.0,90,0.00,,,0.00,,2017-11-20 11:15:00,
2017-11-20 03:20:00,47.6,44.0,30.11,North,0,0.0,-999.0,90,0.00,,,0.00,,2017-11-20 11:20:00,
2017-11-20 03:26:00,47.6,44.0,30.11,NNE,23,0.0,-999.0,90,0.00,,,0.00,,2017-11-20 11:26:00,
2017-11-20 03:32:00,47.6,44.0,30.11,NNE,23,0.0,-999.0,90,0.00,,,0.00,,2017-11-20 11:32:00,